GW1573 Weather Reports


time (UTC)temp
C
wind
direction
speed
KPH
gust
KPH
rain 1hr
cm
rain 24hr
cm
rain mn
cm
humidity
%
barometer
mb
20260502160623 10 216 3.2 4.8 0.00 0.00 0.00 45 1017.6
20260502151833 10 15 0.0 1.6 0.00 0.00 0.00 56 1017.9
20260502151241 10 281 6.4 9.7 0.00 0.00 0.00 50 1017.9
20260502150650 10 64 1.6 4.8 0.00 0.00 0.00 53 1017.9
20260502130631 6 56 1.6 6.4 0.00 0.00 0.00 77 1017.9
20260502123635 4 78 0.0 0.0 0.00 0.00 0.00 99 1017.6
20260502122440 3 79 0.0 0.0 0.00 0.00 0.00 99 1017.6
20260502121222 2 94 0.0 0.0 0.00 0.00 0.00 99 1017.6
20260502120644 2 142 0.0 0.0 0.00 0.00 0.00 99 1017.6
20260502115451 1 88 0.0 0.0 0.00 0.00 0.00 99 1017.2
20260502114813 1 88 0.0 0.0 0.00 0.00 0.00 99 1017.6
20260502114232 1 88 0.0 0.0 0.00 0.00 0.00 99 1017.6
20260502113611 0 88 0.0 0.0 0.00 0.00 0.00 99 1017.2
20260502113039 0 88 0.0 0.0 0.00 0.00 0.00 99 1017.2
20260502112437 0 88 0.0 0.0 0.00 0.00 0.00 99 1017.2
20260502111828 0 88 0.0 0.0 0.00 0.00 0.00 99 1017.2
20260502111226 0 88 0.0 0.0 0.00 0.00 0.00 99 1017.2
20260502110017 0 88 0.0 0.0 0.00 0.00 0.00 99 1017.2
20260502105418 0 88 0.0 0.0 0.00 0.00 0.00 99 1017.2
20260502104829 0 88 0.0 0.0 0.00 0.00 0.00 99 1017.6
20260502104217 0 88 0.0 0.0 0.00 0.00 0.00 99 1017.2
20260502103635 0 88 0.0 0.0 0.00 0.00 0.00 99 1017.6
20260502103043 0 88 0.0 0.0 0.00 0.00 0.00 99 1017.6
20260502102419 0 88 0.0 0.0 0.00 0.00 0.00 99 1017.6
20260502101846 0 89 0.0 0.0 0.00 0.00 0.00 99 1017.6
20260502100630 0 89 0.0 0.0 0.00 0.00 0.00 99 1017.6
20260502091252 0 86 0.0 0.0 0.00 0.00 0.00 99 1017.6
20260502090624 0 87 0.0 0.0 0.00 0.00 0.00 99 1017.9
20260502071224 1 88 0.0 0.0 0.00 0.00 0.00 99 1016.9
20260502070652 1 87 0.0 0.0 0.00 0.00 0.00 99 1017.2
20260502070035 1 87 0.0 0.0 0.00 0.00 0.00 99 1017.2
20260502063651 1 88 0.0 0.0 0.00 0.00 0.00 99 1017.2
20260502063042 2 88 0.0 0.0 0.00 0.00 0.00 99 1017.6
20260502061814 2 90 0.0 0.0 0.00 0.00 0.00 99 1017.6
20260502061249 2 84 0.0 0.0 0.00 0.00 0.00 99 1017.9
20260502060622 3 84 0.0 0.0 0.00 0.00 0.00 99 1017.6
20260502060047 3 83 0.0 0.0 0.00 0.00 0.00 99 1017.9
20260502055448 3 83 0.0 0.0 0.00 0.00 0.00 99 1017.6
20260502054820 3 85 0.0 0.0 0.00 0.00 0.00 99 1017.9
20260502054250 3 85 0.0 0.0 0.00 0.00 0.00 99 1017.6
20260502053021 3 83 0.0 0.0 0.00 0.00 0.00 99 1017.9
20260502052415 2 84 0.0 0.0 0.00 0.00 0.00 99 1018.2
20260502051826 2 80 0.0 0.0 0.00 0.00 0.00 99 1018.2
20260502051220 2 138 0.0 0.0 0.00 0.00 0.00 99 1017.9
20260502050628 2 76 0.0 0.0 0.00 0.00 0.00 99 1017.9
20260502050039 1 88 0.0 0.0 0.00 0.00 0.00 99 1017.9
20260502045433 1 88 0.0 0.0 0.00 0.00 0.00 99 1017.9
20260502044838 1 88 0.0 0.0 0.00 0.00 0.00 99 1017.9
20260502043629 1 87 0.0 0.0 0.00 0.00 0.00 99 1017.9
20260502043043 1 87 0.0 0.0 0.00 0.00 0.00 99 1017.9
20260502042435 2 86 0.0 0.0 0.00 0.00 0.00 99 1017.9
20260502041810 2 86 0.0 0.0 0.00 0.00 0.00 99 1017.6
20260502041217 2 86 0.0 0.0 0.00 0.00 0.00 99 1017.6
20260502040649 2 88 0.0 0.0 0.00 0.00 0.00 99 1017.6
20260502040019 2 88 0.0 0.0 0.00 0.00 0.03 99 1017.9
20260502035442 2 89 0.0 0.0 0.00 0.00 0.03 99 1017.6
20260502034810 2 86 0.0 0.0 0.00 0.00 0.03 99 1017.6
20260502034246 1 86 0.0 0.0 0.00 0.00 0.03 98 1017.6
20260502033649 2 86 0.0 0.0 0.00 0.00 0.03 98 1017.6
20260502033012 2 85 0.0 0.0 0.00 0.00 0.03 97 1017.6
20260502032426 2 86 0.0 0.0 0.00 0.00 0.03 97 1017.9
20260502031841 2 85 0.0 0.0 0.00 0.00 0.03 97 1017.9
20260502031213 2 85 0.0 0.0 0.00 0.00 0.03 96 1017.9
20260502030616 2 86 0.0 0.0 0.00 0.00 0.03 96 1017.9
20260502030046 2 85 0.0 0.0 0.00 0.00 0.03 96 1017.9
20260502025414 2 87 0.0 0.0 0.00 0.00 0.03 95 1018.2
20260502024827 2 87 0.0 0.0 0.00 0.00 0.03 94 1017.9
20260502024219 3 87 0.0 0.0 0.00 0.00 0.03 93 1017.9
20260502023624 3 91 0.0 0.0 0.00 0.00 0.03 94 1017.9
20260502023047 3 85 0.0 0.0 0.00 0.00 0.03 92 1017.6
20260502022427 3 85 0.0 0.0 0.00 0.00 0.03 91 1017.6
20260502021812 4 89 0.0 0.0 0.00 0.00 0.03 91 1017.2
20260502021234 4 85 0.0 0.0 0.00 0.00 0.03 91 1017.2
20260502020614 4 80 0.0 0.0 0.00 0.00 0.03 90 1017.2
20260502020036 4 83 0.0 0.0 0.00 0.00 0.03 89 1017.2
20260502015431 5 79 0.0 0.0 0.00 0.00 0.03 86 1017.2
20260502014842 5 82 0.0 0.0 0.00 0.00 0.03 86 1017.2
20260502014227 5 83 0.0 0.0 0.00 0.00 0.03 86 1016.9
20260502013620 5 87 0.0 0.0 0.00 0.00 0.03 84 1016.9
20260502013036 5 154 0.0 1.6 0.00 0.00 0.03 85 1017.2
20260502012450 5 83 0.0 0.0 0.00 0.00 0.03 87 1016.5
20260502011841 5 89 0.0 0.0 0.00 0.00 0.03 86 1016.9
20260502011224 5 91 0.0 0.0 0.00 0.00 0.03 84 1016.5
20260502010625 5 95 0.0 0.0 0.00 0.00 0.03 84 1016.5
20260502010053 6 90 0.0 0.0 0.00 0.00 0.03 82 1016.2
20260502005446 6 87 0.0 0.0 0.00 0.00 0.03 80 1015.9
20260502004843 6 78 0.0 0.0 0.00 0.00 0.03 78 1015.9
20260502004227 7 79 0.0 0.0 0.00 0.00 0.03 75 1015.9
20260502003649 7 90 0.0 0.0 0.00 0.00 0.03 72 1015.9
20260502002449 8 96 1.6 1.6 0.00 0.00 0.03 69 1016.2
20260502001832 8 74 0.0 0.0 0.00 0.00 0.03 68 1015.9
20260502001246 8 80 1.6 1.6 0.00 0.00 0.03 68 1015.5
20260502000031 8 164 1.6 3.2 0.00 0.00 0.03 69 1015.2
20260501235453 8 62 3.2 6.4 0.00 0.00 0.03 66 1015.2
20260501234840 9 97 3.2 4.8 0.00 0.00 0.03 64 1015.2
20260501234253 9 92 4.8 4.8 0.00 0.00 0.03 63 1015.2
20260501233644 10 65 0.0 0.0 0.00 0.00 0.03 66 1015.2
20260501233024 10 79 1.6 1.6 0.00 0.00 0.03 66 1014.9
20260501232442 10 34 3.2 4.8 0.00 0.00 0.03 65 1014.9
20260501231817 11 37 6.4 6.4 0.00 0.00 0.03 62 1014.5
20260501231255 11 351 1.6 3.2 0.00 0.00 0.03 63 1014.9
20260501230650 11 125 1.6 3.2 0.00 0.00 0.03 64 1014.5
20260501230036 11 326 4.8 9.7 0.00 0.00 0.03 63 1014.5
20260501225415 11 110 1.6 3.2 0.00 0.00 0.03 63 1014.5
20260501224827 11 137 4.8 6.4 0.00 0.00 0.03 62 1014.5
20260501224233 11 319 6.4 11.3 0.00 0.00 0.03 63 1014.2
20260501223617 11 152 8.0 14.5 0.00 0.00 0.03 62 1014.2
20260501223053 11 165 3.2 3.2 0.00 0.00 0.03 62 1014.2
20260501222451 11 298 3.2 11.3 0.00 0.00 0.03 64 1014.2
20260501221839 11 222 6.4 9.7 0.00 0.00 0.03 67 1013.8
20260501221246 11 244 8.0 9.7 0.00 0.00 0.03 67 1013.8
20260501220645 11 74 3.2 6.4 0.00 0.00 0.03 72 1013.8
20260501220021 12 46 3.2 3.2 0.00 0.00 0.03 72 1013.8
20260501215415 11 291 3.2 3.2 0.00 0.00 0.03 72 1013.8
20260501214238 11 295 3.2 4.8 0.00 0.00 0.03 71 1013.8
20260501213041 11 24 4.8 4.8 0.00 0.00 0.03 71 1013.8
20260501211829 12 69 1.6 3.2 0.00 0.00 0.03 69 1013.5
20260501211210 11 16 3.2 4.8 0.00 0.00 0.03 70 1013.5
20260501210617 11 295 8.0 11.3 0.00 0.00 0.03 69 1013.5
20260501210030 12 89 1.6 3.2 0.00 0.00 0.03 71 1013.5
20260501205421 12 314 3.2 3.2 0.00 0.00 0.03 72 1013.5
20260501204849 11 226 4.8 6.4 0.00 0.00 0.03 77 1013.5
20260501203622 10 56 1.6 3.2 0.00 0.00 0.03 82 1013.5
20260501202444 10 240 3.2 3.2 0.00 0.00 0.03 82 1013.8
20260501201809 10 159 1.6 1.6 0.00 0.00 0.03 85 1013.8
20260501201239 10 208 3.2 4.8 0.00 0.00 0.03 85 1013.8
20260501200048 10 126 0.0 1.6 0.00 0.00 0.03 85 1013.8
20260501194853 10 193 3.2 3.2 0.00 0.00 0.03 83 1013.8
20260501194230 10 178 0.0 1.6 0.00 0.00 0.03 82 1013.8
20260501193623 10 199 4.8 6.4 0.00 0.00 0.03 80 1013.8
20260501193039 11 56 3.2 3.2 0.00 0.00 0.03 80 1013.8
20260501192423 11 332 4.8 9.7 0.00 0.00 0.03 78 1013.8
20260501191236 11 102 0.0 1.6 0.00 0.00 0.03 78 1013.8
20260501190646 12 319 4.8 6.4 0.00 0.00 0.03 73 1013.5
20260501190012 12 7 3.2 4.8 0.00 0.00 0.03 71 1013.5
20260501185428 12 89 1.6 3.2 0.00 0.00 0.03 70 1013.5
20260501184841 12 167 3.2 3.2 0.00 0.00 0.03 73 1013.5
20260501184223 12 66 0.0 0.0 0.00 0.00 0.03 81 1013.5
20260501183648 12 85 3.2 3.2 0.00 0.00 0.03 76 1013.5
20260501182421 12 314 1.6 3.2 0.00 0.00 0.03 72 1013.2
20260501181823 12 99 3.2 3.2 0.00 0.00 0.03 71 1013.2
20260501181238 12 172 6.4 11.3 0.00 0.00 0.00 66 1013.2
20260501180653 12 81 1.6 1.6 0.00 0.00 0.00 68 1012.8
20260501180037 13 259 8.0 11.3 0.00 0.00 0.00 62 1012.8
20260501172428 15 325 1.6 3.2 0.00 0.00 0.00 58 1012.8
20260501171232 14 168 4.8 11.3 0.00 0.00 0.00 54 1012.8
20260501170612 15 117 0.0 0.0 0.00 0.00 0.00 48 1012.8
20260501170023 15 128 0.0 0.0 0.00 0.00 0.00 51 1012.8
20260501164851 14 77 1.6 1.6 0.00 0.00 0.00 52 1012.8
20260501164237 14 234 1.6 1.6 0.00 0.00 0.00 55 1012.8
20260501163644 14 141 3.2 4.8 0.00 0.00 0.00 56 1012.8
20260501162426 14 178 6.4 6.4 0.00 0.00 0.00 51 1012.8